Home   Weather   Târgu Mureş   Past weeks

Flag for Romania Past Weather in Târgu Mureş, Romania — Yesterday and Last 2 Weeks

Now
36 °F

Fog.


Feels Like: 30 °F
Forecast: 41 / 61 °F
Wind: 7 mph from East

Location: Tirgu Mures Airport

Current Time: Feb 27, 2017 at 11:00:11 pm

Latest Report: Feb 27, 2017 at 10:00 pm


Visibility: 3 mi

Pressure: 29.98 "Hg

Humidity: 87%

Dew Point: 32 °F

Location of Târgu MureşLocation

Past Weather in Târgu Mureş — Graph

°F

Târgu Mureş Temperature Yesterday

Maximum temperature yesterday: 50 °F (at 3:00 pm)
Minimum temperature yesterday: 21 °F (at 2:00 am)
Average temperature yesterday: 33 °F

High & Low Weather Summary for the Past Weeks

 TemperatureHumidityPressure
High57 °F (Feb 24, 11:30 am)100% (Feb 14, 12:00 am)30.63 "Hg (Feb 14, 12:00 am)
Low18 °F (Feb 13, 4:30 am)40% (Feb 26, 3:00 pm)29.71 "Hg (Feb 24, 1:00 am)
Average34 °F82%30.17 "Hg
* Reported Feb 12 9:00 pm — Feb 27 9:30 pm, Târgu Mureş, Weather by CustomWeather, © 2017

Note: Actual official high and low records may vary slightly from our data, if they occured in-between our weather recording intervals... More about our weather records

Advertising

Târgu Mureş Weather History for the Previous 24 Hours

Scroll right to see more
 ConditionsComfort  
Time TempWeatherWind HumidityBarometerVisibility
9:30 pm
Mon, Feb 27
37 °FClear.2 mph87%29.98 "Hg5 mi
9:00 pm37 °FClear.No wind87%29.98 "Hg10 mi
8:30 pm39 °FClear.No wind87%29.98 "Hg10 mi
8:00 pm39 °FClear.No wind87%29.98 "Hg10 mi
7:30 pm41 °FClear.No wind81%29.98 "Hg10 mi
7:00 pm45 °FClear.No wind71%29.98 "Hg10 mi
6:30 pm45 °FClear.No wind76%29.98 "Hg10 mi
6:00 pm48 °FSunny.No wind66%29.98 "Hg10 mi
5:30 pm50 °FSunny.No wind58%29.98 "Hg10 mi
5:00 pm54 °FSunny.No wind47%29.98 "Hg10 mi
4:30 pm54 °FSunny.1 mph51%30.01 "Hg10 mi
4:00 pm54 °FSunny.2 mph47%30.01 "Hg10 mi
3:30 pm55 °FSunny.2 mph47%30.01 "Hg10 mi
3:00 pm55 °FSunny.1 mph44%30.01 "Hg10 mi
2:30 pm54 °FPassing clouds.2 mph44%30.01 "HgN/A
2:00 pm54 °FSunny.2 mph44%30.04 "Hg10 mi
1:30 pm54 °FSunny.2 mph41%30.04 "Hg10 mi
1:00 pm52 °FSunny.3 mph47%30.07 "Hg10 mi
12:30 pm50 °FSunny.2 mph50%30.07 "Hg10 mi
12:00 pm48 °FSunny.3 mph54%30.09 "Hg10 mi
11:30 am48 °FSunny.2 mph54%30.09 "Hg10 mi
11:00 am45 °FPassing clouds.2 mph53%30.09 "HgN/A
10:30 am43 °FPassing clouds.3 mph61%30.09 "Hg5 mi
10:00 am39 °FPassing clouds.5 mph70%30.12 "Hg4 mi
9:30 am36 °FClear.5 mph81%30.12 "Hg4 mi
9:00 am34 °FClear.5 mph87%30.12 "Hg4 mi
8:30 am32 °FClear.3 mph93%30.12 "Hg4 mi
8:00 am30 °FClear.3 mph93%30.09 "Hg4 mi
7:30 am30 °FIce fog.No wind93%30.09 "Hg3 mi
7:00 am28 °FClear.No wind93%30.09 "Hg4 mi
6:30 am30 °FClear.No wind93%30.09 "Hg4 mi
6:00 am30 °FClear.2 mph93%30.09 "Hg4 mi
5:30 am30 °FIce fog.No wind93%30.09 "Hg3 mi
5:00 am30 °FIce fog.No wind93%30.09 "Hg3 mi
4:30 am30 °FClear.No wind93%30.09 "Hg4 mi
4:00 am30 °FIce fog.1 mph93%30.09 "Hg3 mi
3:30 am32 °FClear.3 mph87%30.09 "Hg4 mi
3:00 am32 °FClear.3 mph87%30.09 "Hg4 mi
2:30 am34 °FClear.No wind81%30.09 "Hg4 mi
2:00 am34 °FClear.1 mph81%30.09 "Hg4 mi
1:30 am34 °FClear.5 mph81%30.09 "Hg4 mi
1:00 am34 °FClear.6 mph81%30.09 "Hg5 mi
12:30 am34 °FClear.5 mph81%30.07 "Hg5 mi
12:00 am32 °FClear.3 mph87%30.07 "Hg4 mi
11:30 pm
Sun, Feb 26
32 °FClear.5 mph87%30.07 "Hg4 mi
11:00 pm32 °FClear.6 mph87%30.07 "Hg4 mi
Weather by CustomWeather, © 2017

See weather overviewHow to use our weather pages